Regional Weather Roundup
Issued by NWS

Home | Current Version | Previous Version | Graphics & Text | Print | Product List | Glossary On
Versions: 1 2 3 4 5 6 7 8 9 10 11 12 13 14 15 16 17 18 19 20 21 22 23 24 25 26 27 28 29 30 31 32 33 34 35 36 37 38 39 40 41 42 43 44 45 46 47 48 49 50
000
ASUS45 KSLC 282310
RWRUT

UTAH REGIONAL WEATHER ROUNDUP
NATIONAL WEATHER SERVICE SALT LAKE CITY UT
500 PM MDT THU MAY 28 2015

UTZ001>011-023>025-290000-

NORTHERN UTAH

CITY           SKY/WX    TMP DP  RH WIND       PRES   REMARKS
BRIGHAM CITY   PTSUNNY   63  43  47 SE12      30.11F
HILL AFB       PTSUNNY   68  39  35 NW10      30.12S
LOGAN          LGT RAIN  57  48  72 S10       30.13F
OGDEN          MOSUNNY   69  42  37 N5        30.11S
PROVO AIRPORT  PTSUNNY   68  45  42 SW5       30.09S
SALT LAKE CITY PTSUNNY   71  43  36 N15       30.09S
VERNAL         PTSUNNY   59  41  51 E10       30.13R
WENDOVER       MOSUNNY   72  46  40 S5        30.08S
HEBER CITY     PTSUNNY   70  30  23 NW12G22   30.13S
WEST JORDAN    SUNNY     66  43  42 N14       30.12R

$$

UTZ012>022-026-027-290000-

SOUTHERN/CENTRAL UTAH

CITY           SKY/WX    TMP DP  RH WIND       PRES   REMARKS
BLANDING       PTSUNNY   74  33  21 W12G21    30.14F
BRYCE CANYON   PTSUNNY   64  30  27 NW13G28   30.22R
CEDAR CITY     MOSUNNY   74  36  25 VRB5      30.09F
DELTA          PTSUNNY   73  32  22 W9        30.09R
HANKSVILLE     PTSUNNY   79  36  21 E7        30.02F
MILFORD        TSTM      65  54  67 NE10      30.09R
MOAB/CYNLANDS  MOSUNNY   71  39  31 NE16      30.04S
PRICE          MOSUNNY   67  32  27 NW18G25   30.10S
ST GEORGE      MOCLDY    91  34  13 W12G18    29.92F
KANAB          MOSUNNY   81  32  17 SW9       30.07F

$$

REGIONAL REPORTS     COLORADO/ARIZONA

CITY           SKY/WX    TMP DP  RH WIND       PRES   REMARKS
CRAIG, CO      CLOUDY    57  41  55 W10       30.17R
GRAND JUNCTION CLOUDY    62  44  51 W17       30.13R
RIFLE          CLOUDY    57  39  51 NW14G24   30.16R
MONTROSE       LGT RAIN  60  43  53 NW23G30   30.13R
CORTEZ         PTSUNNY   73  36  25 N8        30.08F
PAGE, AZ       MOSUNNY   85  35  16 N12       29.99F
GRAND CANYON   SUNNY     75  24  15 VRB5G20   30.16F
KINGMAN        SUNNY     90  23   9 SW14      29.98F
FLAGSTAFF      SUNNY     72  16  12 W10G21    30.19F

$$

REGIONAL REPORTS    NEVADA/IDAHO/WYOMING

CITY           SKY/WX    TMP DP  RH WIND       PRES   REMARKS
LAS VEGAS, NV  MOSUNNY   97  29   9 E10G20    29.82F HX  91
ELY            MOSUNNY   71  36  27 NE13      30.14S
ELKO           SUNNY     74  38  27 VRB3      30.09F
POCATELLO, ID  PTSUNNY   67  39  35 NW8       30.12F
BURLEY         MOSUNNY   69  43  38 VRB7      30.09S
EVANSTON, WY   LGT RAIN  43  38  82 W9        30.23R
ROCK SPRINGS   CLOUDY    52  40  63 SW14      30.17F
KEMMERER       CLOUDY    48  37  66 W15       30.22S

$$



USA.gov is the U.S. government's official web portal to all federal, state and local government web resources and services.